sat.trackr.live / text

‹ back to catalog

2023-072D

NORAD 56746 · 2023-072D

PAYLOAD ACTIVE UNKNOWN

§ Identity

Operator
Country
SKOR
Launch date
2023-05-25
Launch site
NSC
Launch vehicle
Mass (kg)
RCS (m²)

External: N2YO · Heavens-Above · Gunter

§ Orbital elements

Epoch: 2026-05-25T04:55:29.328384Z

Period
91.96 min
Inclination
97.4959°
Eccentricity
0.0002683
Mean motion
15.65943540 rev/d
Perigee alt
368.7 km
Apogee alt
372.3 km
Semi-major
6,748.7 km
B*
7.7578e-4
RAAN
359.9566°
Arg perigee
87.1777°
Mean anomaly
272.9790°
Rev number
16,726

§ Raw data

2023-072D1 56746U 23072D   26145.20520056  .00079477  00000+0  77578-3 0  99902 56746  97.4959 359.9566 0002683  87.1777 272.9790 15.65943540167262

JSON: /api/v1/satellites/56746 · /tle

For live sub-satellite position, see the globe view (requires WebGL).

§ Visibility from observer

Set your observer location to see the next 7 days of passes ≥ 10°. The values pass through the URL so the page stays shareable.

No JS? Fill the form by hand. The geolocation button needs JavaScript.